Location: Bun Machan
(52.1403°N, 7.3744°W)
Time: 08:41:38
(UTC+00:00)

BREEZE-M DEB (TANK) - Pass Details

Date: 14 July 2020
Orbit: 274 x 20503 km, 49.2° (Epoch: 04 August)

Event Time Altitude Azimuth Distance (km) Brightness Sun altitude
Exits shadow 01:55:21 29° 220° (SW) 793 3.1 -14.2°
Maximum altitude 01:56:00 33° 190° (S) 798 3.1 -14.2°
Drops below altitude 10° 02:00:37 10° 125° (SE) 2,775 6.2 -13.9°
Sets 02:05:48 0° 119° (ESE) 5,295 7.7 -13.6°
